| time (UTC) | temp F | wind direction | speed MPH | gust MPH | rain 1hr in | rain 24hr in | rain mn in | humidity % | barometer mb |
| 20260507020051 | 57 | 289 | 8.0 | 15.0 | 0.00 | 0.05 | 0.05 | 92 | 1001.5 |
| 20260507014553 | 58 | 279 | 7.0 | 14.0 | 0.00 | 0.05 | 0.05 | 93 | 1001.3 |
| 20260507013039 | 58 | 248 | 6.0 | 13.0 | 0.00 | 0.05 | 0.05 | 93 | 1000.8 |
| 20260507011539 | 59 | 176 | 7.0 | 15.0 | 0.00 | 0.05 | 0.05 | 92 | 1000.8 |
| 20260507010038 | 59 | 202 | 6.0 | 10.0 | 0.00 | 0.05 | 0.05 | 92 | 1000.8 |
| 20260507004541 | 59 | 184 | 6.0 | 13.0 | 0.00 | 0.05 | 0.05 | 93 | 1000.7 |
| 20260507003036 | 59 | 159 | 7.0 | 12.0 | 0.00 | 0.05 | 0.05 | 92 | 1000.5 |
| 20260507001536 | 58 | 201 | 7.0 | 14.0 | 0.00 | 0.05 | 0.05 | 93 | 1000.5 |
| 20260507000036 | 58 | 119 | 6.0 | 12.0 | 0.00 | 0.05 | 0.05 | 93 | 1000.4 |
| 20260506234534 | 59 | 188 | 6.0 | 12.0 | 0.00 | 0.05 | 0.05 | 93 | 1000.1 |
| 20260506233034 | 59 | 185 | 5.0 | 10.0 | 0.00 | 0.05 | 0.05 | 93 | 1000.1 |
| 20260506231534 | 59 | 181 | 5.0 | 13.0 | 0.00 | 0.05 | 0.05 | 93 | 1000.2 |
| 20260506230033 | 59 | 187 | 5.0 | 14.0 | 0.00 | 0.05 | 0.05 | 92 | 1000.2 |
| 20260506224536 | 58 | 160 | 6.0 | 14.0 | 0.00 | 0.05 | 0.05 | 92 | 1000.5 |
| 20260506223031 | 59 | 161 | 8.0 | 12.0 | 0.00 | 0.05 | 0.05 | 92 | 1000.5 |
| 20260506221532 | 59 | 131 | 6.0 | 14.0 | 0.00 | 0.05 | 0.05 | 92 | 1000.5 |
| 20260506220036 | 59 | 195 | 8.0 | 15.0 | 0.00 | 0.05 | 0.05 | 92 | 1000.6 |
| 20260506214529 | 59 | 163 | 7.0 | 15.0 | 0.00 | 0.05 | 0.05 | 92 | 1000.6 |
| 20260506213028 | 59 | 142 | 6.0 | 13.0 | 0.00 | 0.05 | 0.05 | 92 | 1000.5 |
| 20260506211527 | 60 | 142 | 10.0 | 24.0 | 0.00 | 0.05 | 0.05 | 92 | 1000.5 |
| 20260506210028 | 60 | 179 | 6.0 | 19.0 | 0.01 | 0.05 | 0.05 | 92 | 1000.6 |
| 20260506204528 | 60 | 173 | 9.0 | 22.0 | 0.02 | 0.05 | 0.05 | 92 | 1000.7 |
| 20260506203025 | 60 | 161 | 10.0 | 18.0 | 0.02 | 0.05 | 0.05 | 91 | 1000.7 |
| 20260506201539 | 60 | 157 | 9.0 | 18.0 | 0.02 | 0.05 | 0.05 | 91 | 1001.1 |
| 20260506200027 | 61 | 169 | 7.0 | 15.0 | 0.01 | 0.04 | 0.04 | 91 | 1001.1 |
| 20260506194523 | 61 | 180 | 11.0 | 19.0 | 0.00 | 0.03 | 0.03 | 90 | 1001.4 |
| 20260506193025 | 61 | 155 | 6.0 | 19.0 | 0.01 | 0.03 | 0.03 | 90 | 1001.6 |
| 20260506191522 | 61 | 181 | 8.0 | 18.0 | 0.01 | 0.03 | 0.03 | 89 | 1001.3 |
| 20260506190021 | 61 | 145 | 8.0 | 16.0 | 0.02 | 0.03 | 0.03 | 88 | 1001.0 |
| 20260506184520 | 61 | 168 | 6.0 | 12.0 | 0.03 | 0.03 | 0.03 | 88 | 1001.5 |
| 20260506183019 | 61 | 137 | 5.0 | 11.0 | 0.02 | 0.02 | 0.02 | 87 | 1002.0 |
| 20260506181518 | 62 | 171 | 6.0 | 12.0 | 0.02 | 0.02 | 0.02 | 85 | 1002.1 |
| 20260506180018 | 62 | 170 | 5.0 | 10.0 | 0.01 | 0.01 | 0.01 | 83 | 1002.3 |
| 20260506174516 | 63 | 217 | 6.0 | 10.0 | 0.00 | 0.00 | 0.00 | 80 | 1002.6 |
| 20260506173016 | 64 | 237 | 7.0 | 16.0 | 0.00 | 0.00 | 0.00 | 74 | 1002.6 |
| 20260506171516 | 66 | 211 | 9.0 | 24.0 | 0.00 | 0.00 | 0.00 | 69 | 1002.5 |
| 20260506170016 | 68 | 211 | 8.0 | 19.0 | 0.00 | 0.00 | 0.00 | 65 | 1002.4 |
| 20260506164515 | 68 | 244 | 9.0 | 28.0 | 0.00 | 0.00 | 0.00 | 64 | 1002.4 |
| 20260506163029 | 68 | 202 | 7.0 | 28.0 | 0.00 | 0.00 | 0.00 | 64 | 1002.5 |
| 20260506161513 | 68 | 190 | 13.0 | 28.0 | 0.00 | 0.00 | 0.00 | 63 | 1002.6 |
| 20260506160015 | 68 | 161 | 8.0 | 21.0 | 0.00 | 0.00 | 0.00 | 63 | 1002.9 |
| 20260506154509 | 67 | 129 | 5.0 | 15.0 | 0.00 | 0.00 | 0.00 | 66 | 1003.2 |
| 20260506153008 | 67 | 192 | 6.0 | 21.0 | 0.00 | 0.00 | 0.00 | 65 | 1003.4 |
| 20260506151507 | 67 | 215 | 7.0 | 21.0 | 0.00 | 0.00 | 0.00 | 66 | 1003.6 |
| 20260506150008 | 67 | 199 | 7.0 | 15.0 | 0.00 | 0.00 | 0.00 | 68 | 1003.8 |
| 20260506144509 | 67 | 153 | 6.0 | 22.0 | 0.00 | 0.00 | 0.00 | 68 | 1003.3 |
| 20260506143014 | 67 | 133 | 9.0 | 22.0 | 0.00 | 0.00 | 0.00 | 68 | 1003.5 |
| 20260506141503 | 66 | 150 | 5.0 | 11.0 | 0.00 | 0.00 | 0.00 | 72 | 1003.4 |
| 20260506140104 | 65 | 129 | 4.0 | 10.0 | 0.00 | 0.00 | 0.00 | 74 | 1003.4 |
| 20260506134557 | 65 | 116 | 4.0 | 14.0 | 0.00 | 0.00 | 0.00 | 74 | 1003.2 |
| 20260506133100 | 64 | 140 | 5.0 | 8.0 | 0.00 | 0.00 | 0.00 | 76 | 1003.7 |
| 20260506131552 | 63 | 201 | 3.0 | 11.0 | 0.00 | 0.00 | 0.00 | 77 | 1003.7 |
| 20260506130054 | 62 | 161 | 8.0 | 15.0 | 0.00 | 0.00 | 0.00 | 78 | 1003.8 |
| 20260506124549 | 62 | 165 | 6.0 | 12.0 | 0.00 | 0.00 | 0.00 | 79 | 1003.9 |
| 20260506123049 | 61 | 132 | 3.0 | 10.0 | 0.00 | 0.00 | 0.00 | 80 | 1003.9 |
| 20260506121549 | 60 | 122 | 4.0 | 8.0 | 0.00 | 0.00 | 0.00 | 81 | 1003.7 |
| 20260506120106 | 60 | 152 | 4.0 | 10.0 | 0.00 | 0.00 | 0.00 | 81 | 1004.2 |
| 20260506114556 | 59 | 159 | 5.0 | 12.0 | 0.00 | 0.00 | 0.00 | 82 | 1004.1 |
| 20260506113044 | 59 | 153 | 6.0 | 12.0 | 0.00 | 0.00 | 0.00 | 81 | 1004.2 |
| 20260506111549 | 58 | 137 | 6.0 | 11.0 | 0.00 | 0.00 | 0.00 | 81 | 1004.3 |
| 20260506110043 | 58 | 136 | 6.0 | 11.0 | 0.00 | 0.00 | 0.00 | 82 | 1004.2 |
| 20260506104543 | 58 | 136 | 7.0 | 13.0 | 0.00 | 0.00 | 0.00 | 81 | 1004.2 |
| 20260506103036 | 58 | 130 | 6.0 | 11.0 | 0.00 | 0.00 | 0.00 | 81 | 1004.3 |
| 20260506101536 | 58 | 130 | 8.0 | 13.0 | 0.00 | 0.00 | 0.00 | 80 | 1004.0 |
| 20260506100030 | 58 | 136 | 7.0 | 12.0 | 0.00 | 0.00 | 0.00 | 79 | 1004.2 |
| 20260506094529 | 58 | 160 | 6.0 | 14.0 | 0.00 | 0.00 | 0.00 | 78 | 1004.2 |
| 20260506093039 | 59 | 99 | 6.0 | 13.0 | 0.00 | 0.00 | 0.00 | 77 | 1004.1 |
| 20260506091523 | 59 | 103 | 6.0 | 10.0 | 0.00 | 0.00 | 0.00 | 75 | 1004.0 |
| 20260506090020 | 60 | 141 | 5.0 | 9.0 | 0.00 | 0.00 | 0.00 | 74 | 1004.1 |
| 20260506084519 | 60 | 130 | 6.0 | 11.0 | 0.00 | 0.00 | 0.00 | 73 | 1004.2 |
| 20260506083017 | 60 | 154 | 6.0 | 11.0 | 0.00 | 0.00 | 0.00 | 73 | 1004.2 |
| 20260506081515 | 60 | 140 | 6.0 | 10.0 | 0.00 | 0.00 | 0.00 | 71 | 1004.2 |
| 20260506073011 | 61 | 150 | 4.0 | 8.0 | 0.00 | 0.00 | 0.00 | 69 | 1004.2 |
| 20260506071508 | 62 | 143 | 3.0 | 8.0 | 0.00 | 0.00 | 0.00 | 68 | 1004.1 |
| 20260506061505 | 62 | 208 | 8.0 | 14.0 | 0.00 | 0.00 | 0.00 | 66 | 1003.9 |
| 20260506044554 | 63 | 150 | 5.0 | 10.0 | 0.00 | 0.00 | 0.00 | 62 | 1004.5 |
| 20260506043052 | 63 | 205 | 5.0 | 10.0 | 0.00 | 0.00 | 0.00 | 62 | 1004.4 |
| 20260506041602 | 64 | 147 | 5.0 | 9.0 | 0.00 | 0.00 | 0.00 | 61 | 1004.3 |
| 20260506040047 | 65 | 114 | 4.0 | 11.0 | 0.00 | 0.00 | 0.00 | 60 | 1004.3 |
| 20260506034543 | 65 | 142 | 4.0 | 9.0 | 0.00 | 0.00 | 0.00 | 59 | 1004.3 |
| 20260506033043 | 66 | 137 | 6.0 | 10.0 | 0.00 | 0.00 | 0.00 | 58 | 1004.3 |
| 20260506031543 | 66 | 148 | 7.0 | 15.0 | 0.00 | 0.00 | 0.00 | 58 | 1004.4 |
| 20260506030040 | 66 | 207 | 7.0 | 15.0 | 0.00 | 0.00 | 0.00 | 58 | 1004.4 |
| 20260506024540 | 66 | 139 | 5.0 | 11.0 | 0.00 | 0.00 | 0.00 | 58 | 1004.5 |
| 20260506023050 | 66 | 198 | 6.0 | 13.0 | 0.00 | 0.00 | 0.00 | 58 | 1004.4 |
| 20260506021539 | 67 | 134 | 7.0 | 14.0 | 0.00 | 0.00 | 0.00 | 57 | 1004.4 |